Location: Clairmont
(55.2667°N, 118.8000°W)
Time: 15:02:59
(UTC+00:00)

Envisat - Pass Details

Date: 02 November 2020
Orbit: 764 x 766 km, 98.1° (Epoch: 03 December)

Event Time Altitude Azimuth Distance (km) Brightness Sun altitude
Rises 01:13:03 0° 178° (S) 3,224 6.4 -8.6°
Reaches altitude 10° 01:15:24 10° 183° (S) 2,302 5.7 -8.9°
Maximum altitude 01:20:22 53° 260° (W) 939 4.0 -9.6°
Drops below altitude 10° 01:25:22 10° 338° (NNW) 2,318 5.6 -10.3°
Sets 01:27:45 0° 343° (NNW) 3,248 6.3 -10.6°
